Location: Newark
(50.0953°N, 2.1719°E)
Time: 10:37:06
(UTC+00:00)

N. Korean satellite - Pass Details

Date: 25 January 2020
Orbit: 456 x 505 km, 97.2° (Epoch: 22 February)

Event Time Altitude Azimuth Distance (km) Brightness Sun altitude
Rises 05:41:21 0° 14° (NNE) 2,533 10.3 -18.0°
Reaches altitude 10° 05:43:25 10° 17° (NNE) 1,658 9.4 -17.7°
Maximum altitude 05:46:58 72° 102° (ESE) 513 6.8 -17.1°
Drops below altitude 10° 05:50:33 10° 187° (S) 1,672 9.3 -16.6°
Sets 05:52:38 0° 190° (S) 2,557 10.2 -16.2°
